Wetterdaten: Mittwoch, 27.05.2015
Datum Zeit Auen-Temp. Temp gefhlt Luftfeuchte Luftdruck Regen Wind Richtung Richtung Taupunkt Windben
27.05.2015 00:00 6,0 C 5,9 C 90 % 1019,3 hPa 0,0 mm 0,0 km/h (0 Bft) S-SW 202 4,5 C 0,0 km/h (0 Bft)
27.05.2015 00:05 6,0 C 5,9 C 90 % 1019,3 hPa 0,0 mm 0,0 km/h (0 Bft) S-SO 157 4,5 C 0,0 km/h (0 Bft)
27.05.2015 00:10 6,0 C 5,9 C 90 % 1019,3 hPa 0,0 mm 0,0 km/h (0 Bft) S-SO 157 4,5 C 0,0 km/h (0 Bft)
27.05.2015 00:15 6,0 C 5,9 C 87 % 1019,2 hPa 0,0 mm 0,0 km/h (0 Bft) SO 135 4,0 C 0,0 km/h (0 Bft)
27.05.2015 00:20 6,0 C 6,0 C 87 % 1019,2 hPa 0,0 mm 0,3 km/h (0 Bft) N-NO 22 4,0 C 0,0 km/h (0 Bft)
27.05.2015 00:25 6,0 C 6,0 C 87 % 1019,2 hPa 0,0 mm 0,3 km/h (0 Bft) NW 315 4,0 C 0,0 km/h (0 Bft)
27.05.2015 00:30 6,0 C 6,0 C 87 % 1019,2 hPa 0,0 mm 0,8 km/h (0 Bft) NW 315 4,0 C 0,0 km/h (0 Bft)
27.05.2015 00:35 6,0 C 5,9 C 90 % 1019,3 hPa 0,0 mm 1,0 km/h (0 Bft) W-SW 247 4,5 C 4,4 km/h (1 Bft)
27.05.2015 00:40 6,0 C 5,9 C 90 % 1019,3 hPa 0,0 mm 0,8 km/h (0 Bft) SW 225 4,5 C 0,0 km/h (0 Bft)
27.05.2015 00:45 6,0 C 6,0 C 88 % 1019,3 hPa 0,0 mm 0,5 km/h (0 Bft) S-SW 202 4,2 C 0,0 km/h (0 Bft)
27.05.2015 00:50 6,0 C 5,9 C 90 % 1019,3 hPa 0,0 mm 0,3 km/h (0 Bft) SW 225 4,5 C 0,0 km/h (0 Bft)
27.05.2015 00:55 6,0 C 5,9 C 90 % 1019,4 hPa 0,0 mm 0,3 km/h (0 Bft) SW 225 4,5 C 0,0 km/h (0 Bft)
27.05.2015 01:00 6,0 C 5,9 C 90 % 1019,4 hPa 0,0 mm 0,8 km/h (0 Bft) W-SW 247 4,5 C 5,4 km/h (1 Bft)
27.05.2015 01:05 6,0 C 5,9 C 90 % 1019,4 hPa 0,0 mm 2,1 km/h (1 Bft) S 180 4,5 C 5,4 km/h (1 Bft)
27.05.2015 01:10 6,0 C 5,9 C 90 % 1019,4 hPa 0,0 mm 2,6 km/h (1 Bft) W-SW 247 4,5 C 0,0 km/h (0 Bft)
27.05.2015 01:15 6,0 C 5,9 C 90 % 1019,4 hPa 0,0 mm 1,3 km/h (1 Bft) S 180 4,5 C 0,0 km/h (0 Bft)
27.05.2015 01:20 6,0 C 5,9 C 90 % 1019,4 hPa 0,0 mm 0,0 km/h (0 Bft) W-NW 292 4,5 C 0,0 km/h (0 Bft)
27.05.2015 01:25 6,0 C 5,9 C 90 % 1019,4 hPa 0,0 mm 0,0 km/h (0 Bft) W 270 4,5 C 0,0 km/h (0 Bft)
27.05.2015 01:30 6,0 C 5,9 C 90 % 1019,4 hPa 0,0 mm 0,0 km/h (0 Bft) W-NW 292 4,5 C 0,0 km/h (0 Bft)
27.05.2015 01:35 6,0 C 5,9 C 90 % 1019,6 hPa 0,0 mm 0,3 km/h (0 Bft) SW 225 4,5 C 0,0 km/h (0 Bft)
27.05.2015 01:40 6,0 C 5,9 C 90 % 1019,6 hPa 0,0 mm 1,6 km/h (1 Bft) W-SW 247 4,5 C 6,5 km/h (2 Bft)
27.05.2015 01:45 6,0 C 5,9 C 90 % 1019,6 hPa 0,0 mm 1,8 km/h (1 Bft) S-SO 157 4,5 C 0,0 km/h (0 Bft)
27.05.2015 01:50 6,0 C 5,9 C 90 % 1019,6 hPa 0,0 mm 2,3 km/h (1 Bft) S 180 4,5 C 0,0 km/h (0 Bft)
27.05.2015 01:55 6,0 C 5,9 C 90 % 1019,6 hPa 0,0 mm 2,1 km/h (1 Bft) S 180 4,5 C 3,9 km/h (1 Bft)
27.05.2015 02:00 6,0 C 5,9 C 90 % 1019,6 hPa 0,0 mm 1,3 km/h (1 Bft) S-SW 202 4,5 C 0,0 km/h (0 Bft)
27.05.2015 02:05 6,0 C 5,9 C 90 % 1019,6 hPa 0,0 mm 1,0 km/h (0 Bft) S 180 4,5 C 2,8 km/h (1 Bft)
27.05.2015 02:10 6,0 C 5,8 C 90 % 1019,6 hPa 0,0 mm 0,5 km/h (0 Bft) S 180 4,5 C 0,0 km/h (0 Bft)
27.05.2015 02:15 6,0 C 5,9 C 90 % 1019,4 hPa 0,7 mm 0,5 km/h (0 Bft) W 270 4,5 C 0,0 km/h (0 Bft)
27.05.2015 02:20 6,0 C 5,9 C 90 % 1019,4 hPa 0,0 mm 0,3 km/h (0 Bft) S 180 4,5 C 0,0 km/h (0 Bft)
27.05.2015 02:25 6,0 C 5,8 C 90 % 1019,4 hPa 0,0 mm 0,0 km/h (0 Bft) W-SW 247 4,5 C 0,0 km/h (0 Bft)
27.05.2015 02:30 6,0 C 5,8 C 90 % 1019,4 hPa 0,0 mm 0,0 km/h (0 Bft) NW 315 4,5 C 0,0 km/h (0 Bft)
27.05.2015 02:35 6,0 C 5,9 C 90 % 1019,6 hPa 0,0 mm 0,0 km/h (0 Bft) SW 225 4,5 C 2,6 km/h (1 Bft)
27.05.2015 02:40 6,0 C 5,9 C 90 % 1019,6 hPa 0,0 mm 0,5 km/h (0 Bft) S-SO 157 4,5 C 3,9 km/h (1 Bft)
27.05.2015 02:45 5,9 C 5,9 C 88 % 1019,6 hPa 0,0 mm 1,0 km/h (0 Bft) S-SW 202 4,1 C 4,4 km/h (1 Bft)
27.05.2015 02:50 5,9 C 5,8 C 92 % 1019,6 hPa 0,0 mm 1,8 km/h (1 Bft) S 180 4,7 C 3,9 km/h (1 Bft)
27.05.2015 02:55 5,9 C 5,8 C 92 % 1019,6 hPa 0,0 mm 1,6 km/h (1 Bft) S-SW 202 4,7 C 0,0 km/h (0 Bft)
27.05.2015 03:00 5,9 C 5,8 C 92 % 1019,6 hPa 0,0 mm 1,0 km/h (0 Bft) S 180 4,7 C 0,0 km/h (0 Bft)
27.05.2015 03:05 5,9 C 5,8 C 92 % 1019,6 hPa 0,0 mm 0,8 km/h (0 Bft) S 180 4,7 C 0,0 km/h (0 Bft)
27.05.2015 03:10 5,8 C 5,7 C 92 % 1019,6 hPa 0,0 mm 1,0 km/h (0 Bft) SW 225 4,6 C 0,0 km/h (0 Bft)
27.05.2015 03:15 5,8 C 5,7 C 92 % 1019,3 hPa 0,0 mm 1,6 km/h (1 Bft) S-SW 202 4,6 C 3,6 km/h (1 Bft)
27.05.2015 03:20 5,8 C 5,7 C 92 % 1019,3 hPa 0,0 mm 1,8 km/h (1 Bft) W-SW 247 4,6 C 4,7 km/h (1 Bft)
27.05.2015 03:25 5,8 C 5,7 C 92 % 1019,3 hPa 0,0 mm 1,8 km/h (1 Bft) S-SO 157 4,6 C 7,5 km/h (2 Bft)
27.05.2015 03:30 5,8 C 5,7 C 92 % 1019,3 hPa 0,0 mm 1,8 km/h (1 Bft) W-SW 247 4,6 C 4,1 km/h (1 Bft)
27.05.2015 03:35 5,7 C 5,6 C 92 % 1019,4 hPa 0,0 mm 1,8 km/h (1 Bft) SW 225 4,5 C 4,1 km/h (1 Bft)
27.05.2015 03:40 5,7 C 5,6 C 92 % 1019,4 hPa 0,0 mm 1,6 km/h (1 Bft) W-NW 292 4,5 C 0,0 km/h (0 Bft)
27.05.2015 03:45 5,7 C 5,5 C 92 % 1019,4 hPa 0,0 mm 0,8 km/h (0 Bft) O-SO 112 4,5 C 9,1 km/h (2 Bft)
27.05.2015 03:50 5,6 C 5,5 C 92 % 1019,4 hPa 0,0 mm 0,0 km/h (0 Bft) O-SO 112 4,4 C 0,0 km/h (0 Bft)
27.05.2015 03:55 5,6 C 5,5 C 92 % 1019,6 hPa 0,0 mm 0,0 km/h (0 Bft) O 90 4,4 C 0,0 km/h (0 Bft)
27.05.2015 04:00 5,6 C 5,5 C 92 % 1019,6 hPa 0,0 mm 0,0 km/h (0 Bft) SO 135 4,4 C 0,0 km/h (0 Bft)
27.05.2015 04:05 5,6 C 5,5 C 92 % 1019,6 hPa 0,0 mm 0,0 km/h (0 Bft) SO 135 4,4 C 0,0 km/h (0 Bft)
27.05.2015 04:10 5,6 C 5,5 C 92 % 1019,6 hPa 0,0 mm 0,0 km/h (0 Bft) NW 315 4,4 C 0,0 km/h (0 Bft)
27.05.2015 04:15 5,6 C 5,5 C 92 % 1019,4 hPa 0,0 mm 0,0 km/h (0 Bft) NW 315 4,4 C 0,0 km/h (0 Bft)
27.05.2015 04:20 5,6 C 5,5 C 92 % 1019,4 hPa 0,0 mm 0,0 km/h (0 Bft) S-SO 157 4,4 C 0,0 km/h (0 Bft)
27.05.2015 04:25 5,5 C 5,4 C 92 % 1019,4 hPa 0,0 mm 0,0 km/h (0 Bft) SO 135 4,3 C 0,0 km/h (0 Bft)
27.05.2015 04:30 5,5 C 5,4 C 92 % 1019,4 hPa 0,0 mm 0,0 km/h (0 Bft) S-SO 157 4,3 C 0,0 km/h (0 Bft)
27.05.2015 04:35 5,5 C 5,4 C 88 % 1019,6 hPa 0,0 mm 0,0 km/h (0 Bft) W-SW 247 3,7 C 0,0 km/h (0 Bft)
27.05.2015 04:40 5,5 C 5,5 C 88 % 1019,6 hPa 0,0 mm 0,0 km/h (0 Bft) W 270 3,7 C 0,0 km/h (0 Bft)
27.05.2015 04:45 5,5 C 5,4 C 92 % 1019,6 hPa 0,0 mm 0,0 km/h (0 Bft) SW 225 4,3 C 4,7 km/h (1 Bft)
27.05.2015 04:50 5,5 C 5,4 C 92 % 1019,6 hPa 0,0 mm 1,0 km/h (0 Bft) NW 315 4,3 C 0,0 km/h (0 Bft)
27.05.2015 04:55 5,5 C 5,4 C 92 % 1019,6 hPa 0,0 mm 1,3 km/h (1 Bft) W-SW 247 4,3 C 5,7 km/h (1 Bft)
27.05.2015 05:00 5,4 C 5,3 C 92 % 1019,6 hPa 0,0 mm 2,6 km/h (1 Bft) SW 225 4,2 C 8,0 km/h (2 Bft)
27.05.2015 05:05 5,4 C 5,3 C 92 % 1019,6 hPa 0,0 mm 3,1 km/h (1 Bft) W 270 4,2 C 0,0 km/h (0 Bft)
27.05.2015 05:10 5,4 C 5,2 C 92 % 1019,6 hPa 0,0 mm 1,3 km/h (1 Bft) S 180 4,2 C 0,0 km/h (0 Bft)
27.05.2015 05:15 5,3 C 5,2 C 92 % 1019,6 hPa 0,0 mm 0,0 km/h (0 Bft) SW 225 4,1 C 0,0 km/h (0 Bft)
27.05.2015 05:20 5,3 C 5,1 C 92 % 1019,6 hPa 0,0 mm 0,5 km/h (0 Bft) S 180 4,1 C 5,2 km/h (1 Bft)
27.05.2015 05:25 5,2 C 5,1 C 92 % 1019,6 hPa 0,0 mm 2,1 km/h (1 Bft) S 180 4,0 C 4,9 km/h (1 Bft)
27.05.2015 05:30 5,3 C 5,1 C 92 % 1019,6 hPa 0,0 mm 3,6 km/h (1 Bft) S-SO 157 4,1 C 2,6 km/h (1 Bft)
27.05.2015 05:35 5,3 C 5,1 C 92 % 1019,8 hPa 0,0 mm 2,6 km/h (1 Bft) S 180 4,1 C 4,1 km/h (1 Bft)
27.05.2015 05:40 5,2 C 5,0 C 92 % 1019,8 hPa 0,0 mm 3,1 km/h (1 Bft) S 180 4,0 C 6,2 km/h (2 Bft)
27.05.2015 05:45 5,2 C 5,0 C 92 % 1019,8 hPa 0,0 mm 4,7 km/h (1 Bft) S 180 4,0 C 6,0 km/h (2 Bft)
27.05.2015 05:50 5,2 C 5,0 C 92 % 1019,8 hPa 0,0 mm 4,7 km/h (1 Bft) SO 135 4,0 C 5,7 km/h (1 Bft)
27.05.2015 05:55 5,2 C 5,1 C 88 % 1020,0 hPa 0,0 mm 3,9 km/h (1 Bft) S 180 3,4 C 4,9 km/h (1 Bft)
27.05.2015 06:00 5,3 C 5,2 C 92 % 1020,0 hPa 0,0 mm 1,8 km/h (1 Bft) W-NW 292 4,1 C 0,0 km/h (0 Bft)
27.05.2015 06:05 5,3 C 5,2 C 92 % 1020,0 hPa 0,0 mm 1,3 km/h (1 Bft) S-SW 202 4,1 C 0,0 km/h (0 Bft)
27.05.2015 06:10 5,4 C 5,3 C 92 % 1020,0 hPa 0,0 mm 1,0 km/h (0 Bft) W-SW 247 4,2 C 0,0 km/h (0 Bft)
27.05.2015 06:15 5,4 C 5,3 C 92 % 1020,2 hPa 0,0 mm 0,5 km/h (0 Bft) SW 225 4,2 C 0,0 km/h (0 Bft)
27.05.2015 06:20 5,4 C 5,4 C 88 % 1020,2 hPa 0,0 mm 0,3 km/h (0 Bft) W-SW 247 3,6 C 0,0 km/h (0 Bft)
27.05.2015 06:25 5,5 C 5,4 C 92 % 1020,2 hPa 0,0 mm 0,3 km/h (0 Bft) NW 315 4,3 C 0,0 km/h (0 Bft)
27.05.2015 06:30 5,5 C 5,4 C 92 % 1020,2 hPa 0,0 mm 0,0 km/h (0 Bft) W-SW 247 4,3 C 0,0 km/h (0 Bft)
27.05.2015 06:35 5,5 C 5,4 C 92 % 1020,3 hPa 0,0 mm 0,0 km/h (0 Bft) SW 225 4,3 C 0,0 km/h (0 Bft)
27.05.2015 06:40 5,4 C 5,4 C 88 % 1020,3 hPa 0,0 mm 0,3 km/h (0 Bft) NW 315 3,6 C 0,0 km/h (0 Bft)
27.05.2015 06:45 5,4 C 5,3 C 92 % 1020,3 hPa 0,0 mm 0,3 km/h (0 Bft) S-SW 202 4,2 C 0,0 km/h (0 Bft)
27.05.2015 06:50 5,4 C 5,2 C 92 % 1020,3 hPa 0,0 mm 0,3 km/h (0 Bft) S 180 4,2 C 2,8 km/h (1 Bft)
27.05.2015 06:55 5,3 C 5,2 C 88 % 1020,4 hPa 0,0 mm 0,3 km/h (0 Bft) SW 225 3,5 C 0,0 km/h (0 Bft)
27.05.2015 07:00 5,4 C 5,3 C 88 % 1020,4 hPa 0,0 mm 0,8 km/h (0 Bft) SW 225 3,6 C 0,0 km/h (0 Bft)
27.05.2015 07:05 5,4 C 5,4 C 88 % 1020,4 hPa 0,0 mm 0,5 km/h (0 Bft) O 90 3,6 C 0,0 km/h (0 Bft)
27.05.2015 07:10 5,5 C 5,5 C 88 % 1020,4 hPa 0,0 mm 0,0 km/h (0 Bft) S-SO 157 3,7 C 0,0 km/h (0 Bft)
27.05.2015 07:15 5,6 C 5,6 C 88 % 1020,4 hPa 0,0 mm 0,0 km/h (0 Bft) N 360 3,8 C 0,0 km/h (0 Bft)
27.05.2015 07:20 5,6 C 5,7 C 88 % 1020,4 hPa 0,0 mm 0,0 km/h (0 Bft) W-SW 247 3,8 C 0,0 km/h (0 Bft)
27.05.2015 07:25 5,7 C 5,8 C 88 % 1020,4 hPa 0,0 mm 0,0 km/h (0 Bft) W-SW 247 3,9 C 0,0 km/h (0 Bft)
27.05.2015 07:30 5,7 C 5,9 C 88 % 1020,4 hPa 0,0 mm 0,5 km/h (0 Bft) SW 225 3,9 C 5,4 km/h (1 Bft)
27.05.2015 07:35 5,7 C 5,8 C 88 % 1020,4 hPa 0,0 mm 1,6 km/h (1 Bft) S 180 3,9 C 2,6 km/h (1 Bft)
27.05.2015 07:40 5,7 C 5,8 C 88 % 1020,4 hPa 0,0 mm 1,6 km/h (1 Bft) W 270 3,9 C 0,0 km/h (0 Bft)
27.05.2015 07:45 5,8 C 5,8 C 88 % 1020,4 hPa 0,0 mm 0,5 km/h (0 Bft) W-SW 247 4,0 C 4,1 km/h (1 Bft)
27.05.2015 07:50 5,8 C 5,8 C 88 % 1020,4 hPa 0,0 mm 0,8 km/h (0 Bft) SW 225 4,0 C 0,0 km/h (0 Bft)
27.05.2015 07:55 5,8 C 5,8 C 88 % 1020,6 hPa 0,0 mm 0,8 km/h (0 Bft) W-NW 292 4,0 C 0,0 km/h (0 Bft)
27.05.2015 08:00 5,8 C 5,9 C 88 % 1020,6 hPa 0,0 mm 0,0 km/h (0 Bft) W-SW 247 4,0 C 0,0 km/h (0 Bft)
27.05.2015 08:05 5,8 C 5,9 C 88 % 1020,6 hPa 0,0 mm 0,0 km/h (0 Bft) S 180 4,0 C 0,0 km/h (0 Bft)
27.05.2015 08:10 5,9 C 6,0 C 88 % 1020,6 hPa 0,0 mm 0,3 km/h (0 Bft) W 270 4,1 C 0,0 km/h (0 Bft)
27.05.2015 08:15 6,0 C 6,2 C 87 % 1020,9 hPa 0,0 mm 0,3 km/h (0 Bft) W 270 4,0 C 0,0 km/h (0 Bft)
27.05.2015 08:20 6,1 C 6,3 C 87 % 1020,9 hPa 0,0 mm 0,0 km/h (0 Bft) W 270 4,1 C 0,0 km/h (0 Bft)
27.05.2015 08:25 6,2 C 6,3 C 87 % 1020,9 hPa 0,0 mm 0,5 km/h (0 Bft) W-NW 292 4,2 C 4,9 km/h (1 Bft)
27.05.2015 08:30 6,2 C 6,4 C 87 % 1020,9 hPa 0,0 mm 1,0 km/h (0 Bft) NW 315 4,2 C 0,0 km/h (0 Bft)
27.05.2015 08:35 6,3 C 6,6 C 87 % 1020,8 hPa 0,0 mm 1,8 km/h (1 Bft) W-NW 292 4,3 C 0,0 km/h (0 Bft)
27.05.2015 08:40 6,5 C 6,8 C 87 % 1020,8 hPa 0,0 mm 2,1 km/h (1 Bft) NW 315 4,5 C 3,4 km/h (1 Bft)
27.05.2015 08:45 6,6 C 7,0 C 87 % 1020,8 hPa 0,0 mm 2,1 km/h (1 Bft) SW 225 4,6 C 0,0 km/h (0 Bft)
27.05.2015 08:50 6,7 C 7,3 C 87 % 1020,8 hPa 0,0 mm 2,6 km/h (1 Bft) N-NW 337 4,7 C 2,8 km/h (1 Bft)
27.05.2015 08:55 6,9 C 7,7 C 87 % 1020,8 hPa 0,0 mm 1,8 km/h (1 Bft) NW 315 4,9 C 9,3 km/h (2 Bft)
27.05.2015 09:00 7,0 C 8,1 C 87 % 1020,8 hPa 0,0 mm 2,3 km/h (1 Bft) W-SW 247 5,0 C 3,6 km/h (1 Bft)
27.05.2015 09:05 7,2 C 8,5 C 86 % 1020,8 hPa 0,0 mm 3,1 km/h (1 Bft) W-NW 292 5,0 C 9,8 km/h (2 Bft)
27.05.2015 09:10 7,4 C 9,1 C 86 % 1020,8 hPa 0,0 mm 3,9 km/h (1 Bft) NW 315 5,2 C 7,8 km/h (2 Bft)
27.05.2015 09:15 7,5 C 9,4 C 86 % 1021,0 hPa 0,0 mm 4,7 km/h (1 Bft) NW 315 5,3 C 4,9 km/h (1 Bft)
27.05.2015 09:20 7,7 C 9,9 C 86 % 1021,0 hPa 0,0 mm 5,4 km/h (1 Bft) N-NW 337 5,5 C 6,2 km/h (2 Bft)
27.05.2015 09:25 7,7 C 10,2 C 85 % 1021,0 hPa 0,0 mm 5,4 km/h (1 Bft) N-NO 22 5,3 C 11,4 km/h (2 Bft)
27.05.2015 09:30 7,9 C 10,2 C 85 % 1021,0 hPa 0,0 mm 6,5 km/h (2 Bft) W 270 5,5 C 3,4 km/h (1 Bft)
27.05.2015 09:35 8,0 C 10,4 C 85 % 1020,8 hPa 0,0 mm 6,5 km/h (2 Bft) W-NW 292 5,6 C 12,9 km/h (3 Bft)
27.05.2015 09:40 7,9 C 10,3 C 84 % 1020,8 hPa 0,0 mm 6,0 km/h (2 Bft) SW 225 5,4 C 5,4 km/h (1 Bft)
27.05.2015 09:45 8,2 C 10,6 C 84 % 1020,8 hPa 0,0 mm 5,7 km/h (1 Bft) N-NW 337 5,7 C 13,2 km/h (3 Bft)
27.05.2015 09:50 8,3 C 11,1 C 83 % 1020,8 hPa 0,0 mm 3,6 km/h (1 Bft) NW 315 5,6 C 3,4 km/h (1 Bft)
27.05.2015 09:55 8,8 C 11,6 C 83 % 1020,8 hPa 0,0 mm 3,9 km/h (1 Bft) W-NW 292 6,1 C 5,2 km/h (1 Bft)
27.05.2015 10:00 9,2 C 13,0 C 83 % 1020,8 hPa 0,0 mm 3,4 km/h (1 Bft) W 270 6,5 C 8,0 km/h (2 Bft)
27.05.2015 10:05 9,1 C 12,7 C 82 % 1020,8 hPa 0,0 mm 3,6 km/h (1 Bft) NW 315 6,2 C 0,0 km/h (0 Bft)
27.05.2015 10:10 8,6 C 11,6 C 81 % 1020,8 hPa 0,0 mm 2,6 km/h (1 Bft) W-NW 292 5,5 C 7,0 km/h (2 Bft)
27.05.2015 10:15 8,3 C 10,7 C 81 % 1021,1 hPa 0,0 mm 3,6 km/h (1 Bft) S 180 5,2 C 5,2 km/h (1 Bft)
27.05.2015 10:20 8,0 C 10,0 C 81 % 1021,1 hPa 0,0 mm 5,2 km/h (1 Bft) S-SO 157 4,9 C 4,1 km/h (1 Bft)
27.05.2015 10:25 8,2 C 10,2 C 81 % 1021,1 hPa 0,0 mm 4,1 km/h (1 Bft) W 270 5,1 C 6,0 km/h (2 Bft)
27.05.2015 10:30 8,4 C 10,8 C 81 % 1021,1 hPa 0,0 mm 3,1 km/h (1 Bft) N-NW 337 5,3 C 4,4 km/h (1 Bft)
27.05.2015 10:35 8,6 C 11,3 C 81 % 1021,1 hPa 0,0 mm 2,8 km/h (1 Bft) N-NW 337 5,5 C 0,0 km/h (0 Bft)
27.05.2015 10:40 9,0 C 12,1 C 80 % 1021,1 hPa 0,0 mm 3,6 km/h (1 Bft) NW 315 5,7 C 10,6 km/h (2 Bft)
27.05.2015 10:45 9,4 C 12,8 C 80 % 1021,1 hPa 0,0 mm 4,9 km/h (1 Bft) NO 45 6,1 C 6,2 km/h (2 Bft)
27.05.2015 10:50 9,2 C 12,5 C 79 % 1021,1 hPa 0,0 mm 6,0 km/h (2 Bft) N-NW 337 5,8 C 4,7 km/h (1 Bft)
27.05.2015 10:55 9,0 C 11,8 C 79 % 1021,1 hPa 0,0 mm 5,2 km/h (1 Bft) W 270 5,6 C 0,0 km/h (0 Bft)
27.05.2015 11:00 8,5 C 10,7 C 79 % 1021,1 hPa 0,0 mm 4,4 km/h (1 Bft) NW 315 5,1 C 6,7 km/h (2 Bft)
27.05.2015 11:05 8,3 C 10,2 C 78 % 1021,1 hPa 0,0 mm 5,2 km/h (1 Bft) NW 315 4,7 C 4,4 km/h (1 Bft)
27.05.2015 11:10 8,0 C 9,5 C 78 % 1021,1 hPa 0,0 mm 4,1 km/h (1 Bft) W 270 4,4 C 4,7 km/h (1 Bft)
27.05.2015 11:15 8,0 C 9,5 C 78 % 1021,3 hPa 0,0 mm 3,1 km/h (1 Bft) W-NW 292 4,4 C 16,6 km/h (3 Bft)
27.05.2015 11:20 8,1 C 9,5 C 78 % 1021,3 hPa 0,0 mm 3,9 km/h (1 Bft) SW 225 4,5 C 6,2 km/h (2 Bft)
27.05.2015 11:25 8,1 C 9,7 C 78 % 1021,3 hPa 0,0 mm 4,1 km/h (1 Bft) N-NW 337 4,5 C 0,0 km/h (0 Bft)
27.05.2015 11:30 8,4 C 10,3 C 78 % 1021,3 hPa 0,0 mm 3,6 km/h (1 Bft) W-NW 292 4,8 C 10,4 km/h (2 Bft)
27.05.2015 11:35 8,7 C 11,0 C 78 % 1021,1 hPa 0,0 mm 3,1 km/h (1 Bft) S-SO 157 5,1 C 0,0 km/h (0 Bft)
27.05.2015 11:40 9,6 C 12,7 C 78 % 1021,1 hPa 0,0 mm 3,1 km/h (1 Bft) W 270 6,0 C 0,0 km/h (0 Bft)
27.05.2015 11:45 9,9 C 14,1 C 77 % 1021,1 hPa 0,0 mm 2,8 km/h (1 Bft) N 360 6,1 C 10,4 km/h (2 Bft)
27.05.2015 11:50 9,8 C 13,7 C 76 % 1021,1 hPa 0,0 mm 5,4 km/h (1 Bft) NW 315 5,8 C 7,8 km/h (2 Bft)
27.05.2015 11:55 9,7 C 13,4 C 75 % 1021,0 hPa 0,0 mm 5,2 km/h (1 Bft) W 270 5,5 C 4,4 km/h (1 Bft)
27.05.2015 12:00 9,5 C 12,8 C 75 % 1021,0 hPa 0,0 mm 3,6 km/h (1 Bft) NW 315 5,3 C 6,7 km/h (2 Bft)
27.05.2015 12:05 9,5 C 12,8 C 75 % 1021,0 hPa 0,0 mm 3,1 km/h (1 Bft) N-NW 337 5,3 C 0,0 km/h (0 Bft)
27.05.2015 12:10 9,5 C 12,3 C 74 % 1021,0 hPa 0,0 mm 5,2 km/h (1 Bft) SW 225 5,1 C 5,7 km/h (1 Bft)
27.05.2015 12:15 9,5 C 12,1 C 74 % 1021,1 hPa 0,0 mm 4,9 km/h (1 Bft) NW 315 5,1 C 5,7 km/h (1 Bft)
27.05.2015 12:20 8,9 C 11,0 C 73 % 1021,1 hPa 0,0 mm 5,7 km/h (1 Bft) NW 315 4,3 C 17,3 km/h (3 Bft)
27.05.2015 12:25 8,7 C 10,1 C 73 % 1021,1 hPa 0,0 mm 7,5 km/h (2 Bft) W-NW 292 4,1 C 14,2 km/h (3 Bft)
27.05.2015 12:30 8,4 C 8,8 C 74 % 1021,1 hPa 0,0 mm 8,3 km/h (2 Bft) W-NW 292 4,0 C 5,7 km/h (1 Bft)
27.05.2015 12:35 8,3 C 9,0 C 74 % 1021,3 hPa 0,0 mm 6,2 km/h (2 Bft) NW 315 3,9 C 6,0 km/h (2 Bft)
27.05.2015 12:40 8,2 C 9,0 C 74 % 1021,3 hPa 0,0 mm 2,8 km/h (1 Bft) W 270 3,8 C 6,7 km/h (2 Bft)
27.05.2015 12:45 8,3 C 9,3 C 75 % 1021,3 hPa 0,0 mm 1,8 km/h (1 Bft) W 270 4,1 C 0,0 km/h (0 Bft)
27.05.2015 12:50 8,5 C 9,9 C 75 % 1021,3 hPa 0,0 mm 1,8 km/h (1 Bft) W 270 4,3 C 3,1 km/h (1 Bft)
27.05.2015 12:55 8,7 C 10,3 C 74 % 1021,2 hPa 0,0 mm 2,6 km/h (1 Bft) N-NW 337 4,3 C 6,2 km/h (2 Bft)
27.05.2015 13:00 9,2 C 11,2 C 74 % 1021,2 hPa 0,0 mm 1,6 km/h (1 Bft) S-SW 202 4,8 C 3,4 km/h (1 Bft)
27.05.2015 13:05 9,5 C 11,9 C 74 % 1021,2 hPa 0,0 mm 1,8 km/h (1 Bft) W-SW 247 5,1 C 10,6 km/h (2 Bft)
27.05.2015 13:10 9,8 C 13,1 C 73 % 1021,2 hPa 0,0 mm 2,3 km/h (1 Bft) S-SO 157 5,2 C 6,2 km/h (2 Bft)
27.05.2015 13:15 10,1 C 13,8 C 72 % 1021,1 hPa 0,0 mm 2,8 km/h (1 Bft) W 270 5,3 C 4,4 km/h (1 Bft)
27.05.2015 13:20 10,3 C 14,2 C 72 % 1021,1 hPa 0,0 mm 3,4 km/h (1 Bft) N-NO 22 5,5 C 0,0 km/h (0 Bft)
27.05.2015 13:25 10,4 C 14,2 C 71 % 1021,1 hPa 0,0 mm 3,4 km/h (1 Bft) W-SW 247 5,4 C 3,1 km/h (1 Bft)
27.05.2015 13:30 10,4 C 13,9 C 70 % 1021,1 hPa 0,0 mm 5,4 km/h (1 Bft) SW 225 5,2 C 9,3 km/h (2 Bft)
27.05.2015 13:35 10,4 C 14,0 C 70 % 1021,1 hPa 0,0 mm 5,4 km/h (1 Bft) NW 315 5,2 C 12,7 km/h (3 Bft)
27.05.2015 13:40 10,5 C 13,7 C 68 % 1021,1 hPa 0,0 mm 5,2 km/h (1 Bft) W-SW 247 4,8 C 5,4 km/h (1 Bft)
27.05.2015 13:45 10,7 C 13,8 C 67 % 1021,1 hPa 0,0 mm 7,5 km/h (2 Bft) W 270 4,8 C 22,5 km/h (4 Bft)
27.05.2015 13:50 10,7 C 13,4 C 67 % 1021,1 hPa 0,0 mm 7,0 km/h (2 Bft) NW 315 4,8 C 10,4 km/h (2 Bft)
27.05.2015 13:55 10,4 C 12,8 C 67 % 1021,1 hPa 0,0 mm 7,8 km/h (2 Bft) NW 315 4,5 C 6,2 km/h (2 Bft)
27.05.2015 14:00 10,0 C 11,8 C 67 % 1021,1 hPa 0,0 mm 8,5 km/h (2 Bft) NW 315 4,2 C 7,0 km/h (2 Bft)
27.05.2015 14:05 10,0 C 11,7 C 67 % 1021,1 hPa 0,0 mm 6,2 km/h (2 Bft) W-NW 292 4,2 C 0,0 km/h (0 Bft)
27.05.2015 14:10 10,1 C 12,1 C 67 % 1021,1 hPa 0,0 mm 5,4 km/h (1 Bft) NW 315 4,3 C 15,5 km/h (3 Bft)
27.05.2015 14:15 10,2 C 12,0 C 67 % 1020,9 hPa 0,0 mm 7,0 km/h (2 Bft) W 270 4,4 C 3,6 km/h (1 Bft)
27.05.2015 14:20 10,6 C 12,9 C 67 % 1020,9 hPa 0,0 mm 6,2 km/h (2 Bft) NW 315 4,7 C 6,2 km/h (2 Bft)
27.05.2015 14:25 10,9 C 13,5 C 67 % 1020,9 hPa 0,0 mm 3,9 km/h (1 Bft) W-SW 247 5,0 C 7,8 km/h (2 Bft)
27.05.2015 14:30 11,1 C 14,0 C 66 % 1020,9 hPa 0,0 mm 4,4 km/h (1 Bft) SW 225 5,0 C 7,5 km/h (2 Bft)
27.05.2015 14:35 11,0 C 14,0 C 66 % 1020,9 hPa 0,0 mm 4,4 km/h (1 Bft) W-NW 292 4,9 C 7,3 km/h (2 Bft)
27.05.2015 14:40 10,7 C 13,2 C 66 % 1020,9 hPa 0,0 mm 5,2 km/h (1 Bft) W-SW 247 4,6 C 11,7 km/h (2 Bft)
27.05.2015 14:45 10,4 C 12,5 C 65 % 1020,9 hPa 0,0 mm 7,0 km/h (2 Bft) W-NW 292 4,1 C 6,7 km/h (2 Bft)
27.05.2015 14:50 10,2 C 11,8 C 65 % 1020,9 hPa 0,0 mm 7,5 km/h (2 Bft) N 360 3,9 C 6,5 km/h (2 Bft)
27.05.2015 14:55 10,2 C 11,6 C 66 % 1020,9 hPa 0,0 mm 6,2 km/h (2 Bft) NW 315 4,1 C 5,7 km/h (1 Bft)
27.05.2015 15:00 10,3 C 11,8 C 66 % 1020,9 hPa 0,0 mm 4,9 km/h (1 Bft) W 270 4,2 C 2,8 km/h (1 Bft)
27.05.2015 15:05 10,4 C 12,1 C 67 % 1020,9 hPa 0,0 mm 3,9 km/h (1 Bft) W-SW 247 4,5 C 4,7 km/h (1 Bft)
27.05.2015 15:10 10,6 C 12,4 C 66 % 1020,9 hPa 0,0 mm 2,3 km/h (1 Bft) NW 315 4,5 C 6,2 km/h (2 Bft)
27.05.2015 15:15 10,7 C 12,7 C 66 % 1020,8 hPa 0,0 mm 2,8 km/h (1 Bft) W-NW 292 4,6 C 4,7 km/h (1 Bft)
27.05.2015 15:20 11,1 C 13,3 C 66 % 1020,8 hPa 0,0 mm 2,8 km/h (1 Bft) W-SW 247 5,0 C 0,0 km/h (0 Bft)
27.05.2015 15:25 11,4 C 14,0 C 66 % 1020,8 hPa 0,0 mm 2,3 km/h (1 Bft) W-SW 247 5,3 C 4,4 km/h (1 Bft)
27.05.2015 15:30 11,4 C 14,5 C 65 % 1020,8 hPa 0,0 mm 4,7 km/h (1 Bft) W-NW 292 5,1 C 8,3 km/h (2 Bft)
27.05.2015 15:35 11,3 C 14,3 C 65 % 1020,6 hPa 0,0 mm 5,4 km/h (1 Bft) W 270 5,0 C 12,4 km/h (3 Bft)
27.05.2015 15:40 11,3 C 14,1 C 64 % 1020,6 hPa 0,0 mm 4,9 km/h (1 Bft) W 270 4,7 C 0,0 km/h (0 Bft)
27.05.2015 15:45 11,5 C 14,4 C 64 % 1020,6 hPa 0,0 mm 4,9 km/h (1 Bft) N-NW 337 4,9 C 6,7 km/h (2 Bft)
27.05.2015 15:50 11,7 C 14,8 C 64 % 1020,6 hPa 0,0 mm 4,1 km/h (1 Bft) NW 315 5,1 C 8,0 km/h (2 Bft)
27.05.2015 15:55 11,7 C 14,6 C 64 % 1020,7 hPa 0,0 mm 4,7 km/h (1 Bft) NW 315 5,1 C 7,0 km/h (2 Bft)
27.05.2015 16:00 11,4 C 14,1 C 62 % 1020,7 hPa 0,0 mm 6,2 km/h (2 Bft) W 270 4,4 C 6,0 km/h (2 Bft)
27.05.2015 16:05 11,4 C 13,8 C 63 % 1020,7 hPa 0,0 mm 6,5 km/h (2 Bft) W-SW 247 4,6 C 4,1 km/h (1 Bft)
27.05.2015 16:10 11,5 C 13,8 C 63 % 1020,7 hPa 0,0 mm 3,9 km/h (1 Bft) NW 315 4,7 C 4,7 km/h (1 Bft)
27.05.2015 16:15 11,6 C 14,0 C 62 % 1020,8 hPa 0,0 mm 2,8 km/h (1 Bft) N-NW 337 4,6 C 4,1 km/h (1 Bft)
27.05.2015 16:20 12,1 C 16,4 C 62 % 1020,8 hPa 0,0 mm 2,6 km/h (1 Bft) SW 225 5,0 C 4,9 km/h (1 Bft)
27.05.2015 16:25 12,4 C 18,5 C 61 % 1020,8 hPa 0,0 mm 5,2 km/h (1 Bft) NW 315 5,1 C 17,6 km/h (3 Bft)
27.05.2015 16:30 12,3 C 18,5 C 59 % 1020,8 hPa 0,0 mm 7,5 km/h (2 Bft) S-SW 202 4,5 C 7,0 km/h (2 Bft)
27.05.2015 16:35 12,0 C 17,4 C 59 % 1020,9 hPa 0,0 mm 7,3 km/h (2 Bft) W 270 4,2 C 2,8 km/h (1 Bft)
27.05.2015 16:40 11,8 C 15,9 C 60 % 1020,9 hPa 0,0 mm 4,9 km/h (1 Bft) NW 315 4,3 C 3,9 km/h (1 Bft)
27.05.2015 16:45 11,8 C 15,1 C 61 % 1020,9 hPa 0,0 mm 4,9 km/h (1 Bft) W-NW 292 4,5 C 2,8 km/h (1 Bft)
27.05.2015 16:50 11,8 C 14,3 C 61 % 1020,9 hPa 0,0 mm 5,4 km/h (1 Bft) NW 315 4,5 C 6,2 km/h (2 Bft)
27.05.2015 16:55 11,8 C 14,0 C 61 % 1020,5 hPa 0,0 mm 5,4 km/h (1 Bft) NW 315 4,5 C 4,9 km/h (1 Bft)
27.05.2015 17:00 11,7 C 13,5 C 61 % 1020,5 hPa 0,0 mm 4,9 km/h (1 Bft) N-NW 337 4,4 C 5,2 km/h (1 Bft)
27.05.2015 17:05 11,6 C 13,2 C 61 % 1020,5 hPa 0,0 mm 3,9 km/h (1 Bft) N 360 4,3 C 4,7 km/h (1 Bft)
27.05.2015 17:10 11,7 C 13,1 C 61 % 1020,5 hPa 0,0 mm 3,9 km/h (1 Bft) N-NW 337 4,4 C 10,6 km/h (2 Bft)
27.05.2015 17:15 11,5 C 12,9 C 61 % 1020,4 hPa 0,0 mm 5,2 km/h (1 Bft) NW 315 4,2 C 3,6 km/h (1 Bft)
27.05.2015 17:20 11,5 C 12,9 C 60 % 1020,4 hPa 0,0 mm 5,7 km/h (1 Bft) NW 315 4,0 C 2,6 km/h (1 Bft)
27.05.2015 17:25 11,5 C 13,0 C 60 % 1020,4 hPa 0,0 mm 4,4 km/h (1 Bft) W-NW 292 4,0 C 6,5 km/h (2 Bft)
27.05.2015 17:30 11,5 C 13,0 C 60 % 1020,4 hPa 0,0 mm 4,4 km/h (1 Bft) W 270 4,0 C 6,7 km/h (2 Bft)
27.05.2015 17:35 11,6 C 13,3 C 60 % 1020,3 hPa 0,0 mm 4,9 km/h (1 Bft) NW 315 4,1 C 3,4 km/h (1 Bft)
27.05.2015 17:40 11,7 C 13,3 C 60 % 1020,3 hPa 0,0 mm 4,9 km/h (1 Bft) W-NW 292 4,2 C 6,2 km/h (2 Bft)
27.05.2015 17:45 11,6 C 13,1 C 60 % 1020,3 hPa 0,0 mm 6,2 km/h (2 Bft) NW 315 4,1 C 7,3 km/h (2 Bft)
27.05.2015 17:50 11,4 C 12,7 C 59 % 1020,3 hPa 0,0 mm 7,3 km/h (2 Bft) W-NW 292 3,7 C 7,8 km/h (2 Bft)
27.05.2015 17:55 11,3 C 12,6 C 60 % 1020,5 hPa 0,0 mm 7,3 km/h (2 Bft) N-NW 337 3,8 C 12,4 km/h (3 Bft)
27.05.2015 18:00 11,5 C 12,7 C 60 % 1020,5 hPa 0,0 mm 4,9 km/h (1 Bft) NW 315 4,0 C 5,4 km/h (1 Bft)
27.05.2015 18:05 11,6 C 13,1 C 60 % 1020,5 hPa 0,0 mm 3,9 km/h (1 Bft) N 360 4,1 C 3,9 km/h (1 Bft)
27.05.2015 18:10 11,9 C 13,5 C 59 % 1020,5 hPa 0,0 mm 3,1 km/h (1 Bft) W-SW 247 4,1 C 7,5 km/h (2 Bft)
27.05.2015 18:15 11,9 C 14,1 C 59 % 1020,1 hPa 0,0 mm 2,8 km/h (1 Bft) NO 45 4,1 C 9,3 km/h (2 Bft)
27.05.2015 18:20 11,9 C 14,3 C 59 % 1020,1 hPa 0,0 mm 4,9 km/h (1 Bft) N-NO 22 4,1 C 8,3 km/h (2 Bft)
27.05.2015 18:25 12,0 C 14,4 C 59 % 1020,1 hPa 0,0 mm 4,7 km/h (1 Bft) NW 315 4,2 C 7,3 km/h (2 Bft)
27.05.2015 18:30 12,3 C 14,9 C 59 % 1020,1 hPa 0,0 mm 5,2 km/h (1 Bft) NW 315 4,5 C 5,2 km/h (1 Bft)
27.05.2015 18:35 12,4 C 15,1 C 59 % 1020,1 hPa 0,0 mm 5,4 km/h (1 Bft) N-NO 22 4,6 C 11,7 km/h (2 Bft)
27.05.2015 18:40 12,3 C 15,7 C 58 % 1020,1 hPa 0,0 mm 7,5 km/h (2 Bft) N-NW 337 4,3 C 11,7 km/h (2 Bft)
27.05.2015 18:45 12,2 C 15,6 C 58 % 1020,1 hPa 0,0 mm 9,3 km/h (2 Bft) W-NW 292 4,2 C 10,9 km/h (2 Bft)
27.05.2015 18:50 11,7 C 14,2 C 58 % 1020,1 hPa 0,0 mm 7,5 km/h (2 Bft) W-NW 292 3,7 C 2,6 km/h (1 Bft)
27.05.2015 18:55 11,3 C 13,3 C 59 % 1020,1 hPa 0,0 mm 4,4 km/h (1 Bft) W 270 3,6 C 0,0 km/h (0 Bft)
27.05.2015 19:00 10,8 C 12,2 C 59 % 1020,1 hPa 0,0 mm 1,6 km/h (1 Bft) W-NW 292 3,1 C 0,0 km/h (0 Bft)
27.05.2015 19:05 10,5 C 11,5 C 59 % 1020,1 hPa 0,0 mm 0,5 km/h (0 Bft) NW 315 2,8 C 0,0 km/h (0 Bft)
27.05.2015 19:10 10,5 C 11,6 C 60 % 1020,1 hPa 0,0 mm 0,0 km/h (0 Bft) NW 315 3,1 C 0,0 km/h (0 Bft)
27.05.2015 19:15 10,5 C 12,0 C 61 % 1020,1 hPa 0,0 mm 0,0 km/h (0 Bft) NW 315 3,3 C 0,0 km/h (0 Bft)
27.05.2015 19:20 10,6 C 12,4 C 62 % 1020,1 hPa 0,0 mm 0,3 km/h (0 Bft) NW 315 3,6 C 0,0 km/h (0 Bft)
27.05.2015 19:25 10,7 C 12,3 C 62 % 1020,1 hPa 0,0 mm 0,3 km/h (0 Bft) NW 315 3,7 C 0,0 km/h (0 Bft)
27.05.2015 19:30 10,9 C 13,5 C 63 % 1020,1 hPa 0,0 mm 0,0 km/h (0 Bft) NW 315 4,1 C 2,8 km/h (1 Bft)
27.05.2015 19:35 11,2 C 14,5 C 62 % 1020,1 hPa 0,0 mm 0,5 km/h (0 Bft) N-NW 337 4,2 C 3,1 km/h (1 Bft)
27.05.2015 19:40 11,4 C 15,2 C 62 % 1020,1 hPa 0,0 mm 1,6 km/h (1 Bft) NW 315 4,4 C 4,4 km/h (1 Bft)
27.05.2015 19:45 11,6 C 15,6 C 61 % 1020,1 hPa 0,0 mm 2,1 km/h (1 Bft) NW 315 4,3 C 3,4 km/h (1 Bft)
27.05.2015 19:50 11,4 C 14,6 C 60 % 1020,1 hPa 0,0 mm 1,8 km/h (1 Bft) NW 315 3,9 C 0,0 km/h (0 Bft)
27.05.2015 19:55 11,2 C 13,7 C 61 % 1019,9 hPa 0,0 mm 0,8 km/h (0 Bft) SO 135 4,0 C 0,0 km/h (0 Bft)
27.05.2015 20:00 10,8 C 13,1 C 62 % 1019,9 hPa 0,0 mm 0,0 km/h (0 Bft) SO 135 3,8 C 0,0 km/h (0 Bft)
27.05.2015 20:05 10,6 C 12,6 C 63 % 1019,9 hPa 0,0 mm 0,0 km/h (0 Bft) W 270 3,9 C 0,0 km/h (0 Bft)
27.05.2015 20:10 10,4 C 12,4 C 63 % 1019,9 hPa 0,0 mm 1,3 km/h (1 Bft) SW 225 3,7 C 0,0 km/h (0 Bft)
27.05.2015 20:15 10,3 C 12,3 C 64 % 1020,1 hPa 0,0 mm 1,3 km/h (1 Bft) SW 225 3,8 C 0,0 km/h (0 Bft)
27.05.2015 20:20 10,1 C 12,4 C 66 % 1020,1 hPa 0,0 mm 1,0 km/h (0 Bft) S-SW 202 4,0 C 2,6 km/h (1 Bft)
27.05.2015 20:25 9,9 C 12,2 C 68 % 1020,1 hPa 0,0 mm 1,3 km/h (1 Bft) S-SW 202 4,3 C 3,6 km/h (1 Bft)
27.05.2015 20:30 9,6 C 11,5 C 69 % 1020,1 hPa 0,0 mm 2,8 km/h (1 Bft) S 180 4,2 C 3,4 km/h (1 Bft)
27.05.2015 20:35 9,4 C 11,2 C 70 % 1019,9 hPa 0,0 mm 3,6 km/h (1 Bft) S 180 4,2 C 3,4 km/h (1 Bft)
27.05.2015 20:40 9,1 C 10,9 C 71 % 1019,9 hPa 0,0 mm 3,4 km/h (1 Bft) S-SW 202 4,1 C 4,1 km/h (1 Bft)
27.05.2015 20:45 9,0 C 10,7 C 72 % 1019,9 hPa 0,0 mm 3,6 km/h (1 Bft) S-SO 157 4,2 C 2,8 km/h (1 Bft)
27.05.2015 20:50 8,9 C 10,3 C 74 % 1019,9 hPa 0,0 mm 3,6 km/h (1 Bft) S 180 4,5 C 5,4 km/h (1 Bft)
27.05.2015 20:55 8,8 C 9,8 C 75 % 1020,1 hPa 0,0 mm 4,1 km/h (1 Bft) S-SW 202 4,6 C 4,7 km/h (1 Bft)
27.05.2015 21:00 8,5 C 9,2 C 75 % 1020,1 hPa 0,0 mm 2,6 km/h (1 Bft) S-SO 157 4,3 C 0,0 km/h (0 Bft)
27.05.2015 21:05 8,4 C 8,8 C 75 % 1020,1 hPa 0,0 mm 0,8 km/h (0 Bft) S-SO 157 4,2 C 0,0 km/h (0 Bft)
27.05.2015 21:10 8,4 C 8,5 C 76 % 1020,1 hPa 0,0 mm 1,6 km/h (1 Bft) S-SO 157 4,4 C 4,4 km/h (1 Bft)
27.05.2015 21:15 8,3 C 8,4 C 76 % 1020,4 hPa 0,0 mm 3,1 km/h (1 Bft) S-SW 202 4,3 C 4,9 km/h (1 Bft)
27.05.2015 21:20 8,2 C 8,3 C 76 % 1020,4 hPa 0,0 mm 4,4 km/h (1 Bft) S 180 4,2 C 5,4 km/h (1 Bft)
27.05.2015 21:25 8,1 C 8,2 C 76 % 1020,4 hPa 0,0 mm 4,4 km/h (1 Bft) S 180 4,1 C 4,9 km/h (1 Bft)
27.05.2015 21:30 8,0 C 8,0 C 76 % 1020,4 hPa 0,0 mm 3,6 km/h (1 Bft) S 180 4,0 C 3,9 km/h (1 Bft)
27.05.2015 21:35 7,8 C 7,8 C 77 % 1020,4 hPa 0,0 mm 2,8 km/h (1 Bft) S 180 4,0 C 2,6 km/h (1 Bft)
27.05.2015 21:40 7,6 C 7,5 C 77 % 1020,4 hPa 0,0 mm 1,0 km/h (0 Bft) S 180 3,8 C 0,0 km/h (0 Bft)
27.05.2015 21:45 7,4 C 7,4 C 78 % 1020,4 hPa 0,0 mm 0,8 km/h (0 Bft) S 180 3,8 C 2,8 km/h (1 Bft)
27.05.2015 21:50 7,3 C 7,2 C 78 % 1020,4 hPa 0,0 mm 1,0 km/h (0 Bft) SO 135 3,7 C 0,0 km/h (0 Bft)
27.05.2015 21:55 7,1 C 7,0 C 78 % 1020,4 hPa 0,0 mm 0,8 km/h (0 Bft) S-SO 157 3,5 C 0,0 km/h (0 Bft)
27.05.2015 22:00 6,9 C 6,7 C 79 % 1020,4 hPa 0,0 mm 0,0 km/h (0 Bft) S-SO 157 3,5 C 0,0 km/h (0 Bft)
27.05.2015 22:05 6,8 C 6,6 C 79 % 1020,4 hPa 0,0 mm 0,0 km/h (0 Bft) S-SO 157 3,4 C 0,0 km/h (0 Bft)
27.05.2015 22:10 6,5 C 6,3 C 79 % 1020,4 hPa 0,0 mm 0,0 km/h (0 Bft) S 180 3,1 C 0,0 km/h (0 Bft)
27.05.2015 22:15 6,2 C 6,0 C 79 % 1020,2 hPa 0,0 mm 0,0 km/h (0 Bft) S 180 2,8 C 2,6 km/h (1 Bft)
27.05.2015 22:20 5,9 C 5,7 C 81 % 1020,2 hPa 0,0 mm 0,0 km/h (0 Bft) S 180 2,9 C 0,0 km/h (0 Bft)
27.05.2015 22:25 5,8 C 5,6 C 81 % 1020,2 hPa 0,0 mm 0,0 km/h (0 Bft) S-SW 202 2,8 C 0,0 km/h (0 Bft)
27.05.2015 22:30 5,9 C 5,8 C 80 % 1020,2 hPa 0,0 mm 0,0 km/h (0 Bft) S 180 2,7 C 0,0 km/h (0 Bft)
27.05.2015 22:35 6,0 C 5,8 C 80 % 1020,2 hPa 0,0 mm 0,0 km/h (0 Bft) S 180 2,8 C 0,0 km/h (0 Bft)
27.05.2015 22:40 6,1 C 6,0 C 80 % 1020,2 hPa 0,0 mm 0,0 km/h (0 Bft) S 180 2,9 C 0,0 km/h (0 Bft)
27.05.2015 22:45 6,2 C 6,0 C 81 % 1020,2 hPa 0,0 mm 0,0 km/h (0 Bft) S 180 3,2 C 0,0 km/h (0 Bft)
27.05.2015 22:50 6,2 C 6,1 C 80 % 1020,2 hPa 0,0 mm 0,0 km/h (0 Bft) S-SO 157 3,0 C 0,0 km/h (0 Bft)
27.05.2015 22:55 6,2 C 6,1 C 80 % 1020,1 hPa 0,0 mm 0,0 km/h (0 Bft) S-SO 157 3,0 C 0,0 km/h (0 Bft)
27.05.2015 23:00 6,2 C 6,0 C 81 % 1020,1 hPa 0,0 mm 0,0 km/h (0 Bft) SW 225 3,2 C 0,0 km/h (0 Bft)
27.05.2015 23:05 6,1 C 5,9 C 81 % 1020,1 hPa 0,0 mm 0,0 km/h (0 Bft) W-NW 292 3,1 C 0,0 km/h (0 Bft)
27.05.2015 23:10 6,2 C 6,0 C 81 % 1020,1 hPa 0,0 mm 0,0 km/h (0 Bft) NW 315 3,2 C 0,0 km/h (0 Bft)
27.05.2015 23:15 6,2 C 6,0 C 82 % 1020,1 hPa 0,0 mm 0,0 km/h (0 Bft) O-NO 67 3,4 C 0,0 km/h (0 Bft)
27.05.2015 23:20 6,0 C 5,8 C 82 % 1020,1 hPa 0,0 mm 0,0 km/h (0 Bft) O-NO 67 3,2 C 0,0 km/h (0 Bft)
27.05.2015 23:25 5,8 C 5,6 C 83 % 1020,1 hPa 0,0 mm 0,0 km/h (0 Bft) O-SO 112 3,1 C 0,0 km/h (0 Bft)
27.05.2015 23:30 5,5 C 5,2 C 82 % 1020,1 hPa 0,0 mm 0,0 km/h (0 Bft) O-SO 112 2,7 C 0,0 km/h (0 Bft)
27.05.2015 23:35 5,3 C 5,0 C 82 % 1020,0 hPa 0,0 mm 0,0 km/h (0 Bft) S-SW 202 2,5 C 0,0 km/h (0 Bft)
27.05.2015 23:40 5,0 C 4,7 C 82 % 1020,0 hPa 0,0 mm 0,0 km/h (0 Bft) S-SW 202 2,2 C 0,0 km/h (0 Bft)
27.05.2015 23:45 4,7 C 4,4 C 82 % 1020,0 hPa 0,0 mm 0,0 km/h (0 Bft) S-SW 202 1,9 C 0,0 km/h (0 Bft)
27.05.2015 23:50 4,6 C 4,2 C 82 % 1020,0 hPa 0,0 mm 0,0 km/h (0 Bft) S 180 1,8 C 0,0 km/h (0 Bft)
27.05.2015 23:55 4,5 C 4,1 C 82 % 1019,9 hPa 0,0 mm 0,0 km/h (0 Bft) S 180 1,7 C 0,0 km/h (0 Bft)
_ Min-Zeit 23:55 23:55 18:50 00:30 - 23:55 - - 23:55 23:55
Minimum _ 4,5 C 4,1 C 58 % 1019,2 hPa - 0,0 km/h (0 Bft) - - 1,7 C 0,0 km/h (0 Bft)
_ Max-Zeit 18:35 16:30 06:50 12:50 02:15 18:45 - - 10:00 13:45
Maximum _ 12,4 C 18,5 C 92 % 1021,3 hPa 0,7 mm 9,3 km/h
W-NW (2 Bft)
- - 6,5 C 22,5 km/h
W (4 Bft)
Durchschnitt _ 8,1 C 9,2 C 78 % 1020,3 hPa #0,7 mm 2,5 km/h (1 Bft) NW - 4,3 C 3,5 km/h (1 Bft)